DateTimeUTC,F1_A11,F1_S11,BsB_S11,BsG_S11,BsR_S11,BbsB_S11,BbsG_S11,BbsR_S11,BaB_A11,BaG_A11,BaR_A11,Tu_S11,T_S11,Uu_S11,U_S11,P_S11,T1_A11
2021-07-24T06:00:00Z,00000200,20000000,,,,,,,0000.25,0000.53,0000.63,18.3,25.3,08.1,05.3,0665.4,31.1
2021-07-24T06:01:00Z,00000200,20000000,,,,,,,-000.03,-000.12,-000.24,18.3,25.3,07.9,05.2,0665.4,31.1
2021-07-24T06:02:00Z,00000200,20000000,,,,,,,0000.24,0000.44,0000.04,18.4,25.3,07.9,05.2,0665.4,31.1
2021-07-24T06:03:00Z,00000200,60000000,,,,,,,0000.30,0000.13,0000.60,18.4,25.3,07.9,05.2,0665.4,31.1
2021-07-24T06:04:00Z,00000200,40000000,0002.75,0001.57,0000.65,0000.07,0000.25,0000.16,0000.54,0000.23,-000.08,18.8,25.2,08.0,05.4,0666.3,31.1
2021-07-24T06:05:00Z,00000200,00000000,0001.49,0001.33,0000.98,-000.02,0000.45,0000.39,-000.12,0000.11,0000.32,18.9,25.2,08.0,05.4,0666.4,31.1
2021-07-24T06:06:00Z,00000200,00000000,0002.44,0001.50,0000.91,0000.18,0000.34,0000.25,0000.46,0000.39,0000.11,18.9,25.2,08.0,05.4,0666.4,31.1
2021-07-24T06:07:00Z,00000200,00000000,0001.28,0001.64,0001.11,0000.55,-000.05,0000.22,0000.15,-000.06,0000.23,18.9,25.2,07.9,05.4,0666.4,31.1
2021-07-24T06:08:00Z,00000200,00000000,0001.87,0001.51,0000.79,-000.43,0000.18,0000.19,0000.19,0000.52,0000.03,18.8,25.1,08.0,05.5,0666.4,31.1
2021-07-24T06:09:00Z,00000200,00000000,0002.60,0000.97,0000.89,0000.38,0000.50,0000.35,0000.46,0000.27,0000.45,18.8,25.1,07.9,05.4,0666.4,31.1
2021-07-24T06:10:00Z,00000200,00000000,0001.71,0001.33,0001.21,0000.11,0000.16,0000.28,0000.26,0000.35,0000.62,18.8,25.1,08.0,05.4,0666.4,31.1
2021-07-24T06:11:00Z,00000200,00000000,0001.17,0001.15,0001.03,0000.20,0000.12,0000.07,0000.46,0000.19,-000.26,18.8,25.1,08.1,05.5,0666.4,31.1
2021-07-24T06:12:00Z,00000200,00000000,0001.78,0001.09,0000.83,0000.71,0000.30,-000.10,0000.43,0000.50,0000.64,18.8,25.1,08.1,05.5,0666.4,31.1
2021-07-24T06:13:00Z,00000200,00000000,0002.34,0001.36,0000.69,-000.29,0000.02,0000.46,0000.27,0000.43,0000.22,18.8,25.1,08.2,05.5,0666.4,31.1
2021-07-24T06:14:00Z,00000200,00000000,0001.93,0001.24,0000.95,-000.42,0000.18,0000.05,0000.45,0000.33,0000.02,18.7,25.1,08.1,05.5,0666.5,31.1
2021-07-24T06:15:00Z,00000200,00000000,0001.66,0001.75,0000.84,0000.07,0000.32,0000.06,0000.14,0000.63,0000.69,18.8,25.1,08.1,05.5,0666.5,31.1
2021-07-24T06:16:00Z,00000200,00000000,0002.23,0001.37,0000.77,0000.59,0000.17,0000.15,0000.71,-000.00,0000.21,18.8,25.1,08.1,05.5,0666.5,31.1
2021-07-24T06:17:00Z,00000200,00000000,0001.11,0001.25,0000.88,0000.32,0000.13,0000.19,0000.05,0000.09,0000.11,18.9,25.2,08.1,05.6,0666.4,31.1
2021-07-24T06:18:00Z,00000200,00000000,0001.50,0001.15,0001.17,-000.23,0000.34,0000.35,0000.22,0000.34,0000.59,18.9,25.2,08.1,05.5,0666.5,31.1
2021-07-24T06:19:00Z,00000200,00000000,0001.48,0000.98,0001.12,0000.00,0000.45,0000.25,0000.52,0000.23,-000.03,18.9,25.2,08.0,05.5,0666.5,31.1
2021-07-24T06:20:00Z,00000200,00000000,0001.16,0001.66,0000.59,0000.11,0000.22,0000.15,0000.04,0000.39,0000.43,18.9,25.1,08.1,05.5,0666.5,31.1
2021-07-24T06:21:00Z,00000200,00000000,0001.78,0001.21,0000.96,-000.05,0000.40,0000.15,0000.42,0000.04,0000.00,18.9,25.1,08.1,05.5,0666.5,31.1
2021-07-24T06:22:00Z,00000200,00000000,0001.51,0001.14,0000.88,0000.18,0000.23,-000.01,-000.13,0000.14,0000.20,18.9,25.1,08.1,05.5,0666.5,31.1
2021-07-24T06:23:00Z,00000200,00000000,0001.69,0001.25,0000.98,0000.03,0000.31,0000.01,0000.42,0000.44,-000.14,18.8,25.1,08.1,05.5,0666.5,31.1
2021-07-24T06:24:00Z,00000200,00000000,0001.07,0001.02,0000.66,-000.30,-000.13,0000.20,0000.26,0000.04,0000.50,18.8,25.1,08.1,05.5,0666.5,31.1
2021-07-24T06:25:00Z,00000200,00000000,0001.73,0001.28,0000.81,0000.01,0000.47,0000.04,0000.56,0000.86,0000.32,18.8,25.1,08.3,05.6,0666.5,31.1
2021-07-24T06:26:00Z,00000200,00000000,0000.87,0001.07,0000.96,0000.52,0000.22,0000.03,0000.05,0000.07,0000.23,18.8,25.1,08.2,05.5,0666.5,31.1
2021-07-24T06:27:00Z,00000200,00000000,0001.91,0000.92,0001.03,-000.26,0000.30,0000.69,0000.75,0000.57,0000.24,18.8,25.1,08.2,05.6,0666.5,31.1
2021-07-24T06:28:00Z,00000200,00000000,0002.47,0001.51,0000.83,0000.41,0000.38,0000.29,0000.12,0000.07,-000.13,18.8,25.1,08.2,05.5,0666.5,31.1
2021-07-24T06:29:00Z,00000200,00000000,0000.88,0001.22,0000.99,0000.18,0000.17,0000.19,0000.23,0000.05,0000.52,18.8,25.1,08.1,05.5,0666.5,31.1
2021-07-24T06:30:00Z,00000200,00000000,0001.72,0001.16,0001.06,-000.03,0000.04,0000.41,0000.41,0000.35,0000.28,18.7,25.1,08.2,05.5,0666.5,31.1
2021-07-24T06:31:00Z,00000200,00000000,0001.24,0001.23,0000.84,0000.26,0000.32,0000.31,0000.16,0000.34,0000.18,18.7,25.1,08.2,05.6,0666.4,31.1
2021-07-24T06:32:00Z,00000200,00000000,0001.82,0000.85,0000.80,0000.11,0000.22,0000.36,0000.25,0000.09,0000.49,18.7,25.1,08.3,05.6,0666.4,31.1
2021-07-24T06:33:00Z,00000200,00000000,0002.03,0001.37,0000.93,0000.85,0000.11,0000.30,0000.40,0000.55,0000.02,18.7,25.1,08.3,05.6,0666.4,31.1
2021-07-24T06:34:00Z,00000200,00000000,0002.18,0001.31,0000.97,-000.18,0000.30,0000.24,0000.50,0000.49,0000.26,18.7,25.1,08.4,05.7,0666.4,31.1
2021-07-24T06:35:00Z,00000200,00000000,0000.56,0001.10,0000.78,0000.42,0000.05,0000.22,0000.48,0000.21,0000.46,18.7,25.0,08.5,05.7,0666.4,31.1
2021-07-24T06:36:00Z,00000200,00000000,0000.80,0000.60,0000.57,-000.03,0000.05,0000.33,0000.55,0000.43,0000.30,18.7,25.0,08.6,05.8,0666.4,31.1
2021-07-24T06:37:00Z,00000200,00000000,0001.74,0000.76,0000.45,0000.05,0000.15,-000.11,-000.19,-000.18,0000.53,18.7,25.0,08.5,05.8,0666.4,31.1
2021-07-24T06:38:00Z,00000200,00000000,0000.82,0000.80,0000.69,0000.29,0000.31,0000.10,0000.12,0000.29,-000.16,18.7,25.0,08.5,05.7,0666.4,31.1
2021-07-24T06:39:00Z,00000200,00000000,0001.47,0001.27,0001.00,-000.05,0000.36,0000.31,-000.40,-000.09,-000.22,18.6,25.0,08.4,05.7,0666.4,31.1
2021-07-24T06:40:00Z,00000200,00000000,0001.60,0001.00,0001.02,0000.45,0000.31,0000.51,0000.71,0000.79,0000.29,18.6,25.0,08.3,05.6,0666.4,31.1
2021-07-24T06:41:00Z,00000200,00000000,0001.14,0001.00,0000.62,-000.10,0000.19,0000.17,0000.75,0000.38,0000.40,18.6,25.0,08.3,05.7,0666.4,31.1
2021-07-24T06:42:00Z,00000200,00000000,0001.04,0000.77,0001.03,-000.12,0000.18,0000.27,0000.06,0000.04,0000.22,18.6,25.0,08.5,05.8,0666.4,31.0
2021-07-24T06:43:00Z,00000200,00000000,0000.80,0001.12,0000.65,0000.03,0000.34,0000.42,0000.02,0000.21,0000.06,18.6,25.0,08.5,05.8,0666.4,31.1
2021-07-24T06:44:00Z,00000200,00000000,0001.48,0001.31,0000.73,0000.09,0000.54,0000.23,0000.37,0000.15,0000.18,18.6,25.0,08.5,05.7,0666.4,31.0
2021-07-24T06:45:00Z,00000200,00000000,0000.90,0001.09,0000.68,0000.17,0000.34,-000.07,0000.37,0000.09,0000.20,18.6,24.9,08.4,05.7,0666.4,31.1
2021-07-24T06:46:00Z,00000200,00000000,0001.46,0000.70,0000.81,-000.07,0000.38,0000.35,0000.53,0000.56,0000.68,18.7,25.0,08.4,05.7,0666.4,31.1
2021-07-24T06:47:00Z,00000200,00000000,0002.01,0000.87,0000.95,0000.39,0000.25,0000.39,0000.43,0000.78,0000.21,18.8,25.0,08.4,05.7,0666.4,31.1
2021-07-24T06:48:00Z,00000200,00000000,0000.88,0001.29,0000.62,0000.18,0000.25,0000.10,-000.03,0000.06,0000.27,18.8,25.1,08.4,05.8,0666.4,31.1
2021-07-24T06:49:00Z,00000200,00000000,0001.74,0001.01,0000.95,0000.39,0000.06,0000.40,0000.48,0000.01,0000.13,18.8,25.1,08.3,05.7,0666.4,31.1
2021-07-24T06:50:00Z,00000200,00000000,0001.86,0001.14,0000.74,-000.03,0000.14,0000.11,0000.13,0000.35,0000.11,18.9,25.1,08.3,05.7,0666.4,31.1
2021-07-24T06:51:00Z,00000200,00000000,0001.70,0001.14,0001.03,0000.16,0000.16,0000.56,-000.19,0000.04,0000.36,18.9,25.1,08.4,05.7,0666.4,31.1
2021-07-24T06:52:00Z,00000200,00000000,0001.30,0001.20,0000.71,0000.04,0000.01,0000.49,0000.76,0000.27,-000.17,18.8,25.1,08.4,05.8,0666.4,31.1
2021-07-24T06:53:00Z,00000200,00000000,0001.58,0001.20,0000.63,0000.13,0000.06,0000.15,-000.31,-000.23,0000.07,18.8,25.0,08.2,05.6,0666.4,31.1
2021-07-24T06:54:00Z,00000200,00000000,0001.06,0000.68,0000.53,0000.07,0000.13,0000.15,0000.09,0000.22,0000.23,18.8,25.0,08.1,05.6,0666.4,31.1
2021-07-24T06:55:00Z,00000200,00000000,0001.74,0001.14,0000.60,0000.20,0000.21,0000.28,0000.24,0000.57,0000.05,18.8,25.0,08.1,05.5,0666.4,31.1
2021-07-24T06:56:00Z,00000200,00000000,0001.06,0000.86,0000.66,0000.17,0000.46,0000.03,0000.77,0000.35,0000.47,18.8,25.0,08.3,05.7,0666.3,31.1
2021-07-24T06:57:00Z,00000200,40000000,,,,,,,-000.31,-000.17,0000.19,18.8,25.1,08.1,05.5,0666.2,31.1
2021-07-24T06:58:00Z,00000200,60000000,,,,,,,0000.12,0000.01,-000.04,18.5,25.2,08.3,05.5,0665.3,31.1
2021-07-24T06:59:00Z,00000200,20000000,,,,,,,0000.07,0000.19,0000.12,18.5,25.3,08.3,05.5,0665.3,31.1
